date,time,DOY,Ta_1_1_1,RH_1_1_1,LWin_1_1_1,LWout_1_1_1,SWin_1_1_1,SWout_1_1_1,PPFD_1_1_1,SWC_1_1_1,Ts_1_1_1
[yyyy-mm-dd],[HH:MM],[ddd.ddd],[K],[%],[W+1m-2],[W+1m-2],[W+1m-2],[W+1m-2],[µmol+1m-2s-1],[m+3m-3],[K]
2013-10-29,00:30,302.020,269.23966666666666,79.617666666666693,-9.8183333333333334,-9999.0,0.62533333333333352,-4.4223333333333326,-2.19999999999999987E-002,0.34999999999999981,274.79033333333331
2013-10-29,01:00,302.041,269.19266666666670,80.240333333333339,-9.6423076923076927,-9999.0,0.47433333333333327,-4.0180000000000016,-6.66666666666666709E-003,0.34999999999999981,274.74799999999999
2013-10-29,01:30,302.062,268.94766666666663,77.366999999999990,-8.6839999999999993,-9999.0,7.80000000000000276E-002,-2.9413333333333331,-1.30000000000000046E-002,0.34999999999999981,274.71200000000005
2013-10-29,02:00,302.083,268.93866666666673,77.103999999999999,-8.9450000000000003,-9999.0,0.14199999999999999,-3.4326666666666665,-1.13333333333333359E-002,0.34999999999999981,274.69799999999992
2013-10-29,02:30,302.104,268.54566666666665,78.478666666666669,-9.0956666666666663,-9999.0,0.21400000000000000,-3.9909999999999992,-8.66666666666666627E-003,0.34866666666666651,274.67233333333326
2013-10-29,03:00,302.124,268.29233333333337,81.377333333333340,-8.9016666666666673,-9999.0,0.16433333333333336,-3.5826666666666669,-1.40000000000000020E-002,0.33999999999999991,274.63666666666666
2013-10-29,03:30,302.145,268.32466666666670,82.564666666666682,-7.5710000000000006,-9999.0,-4.50000000000000053E-002,-2.0539999999999998,-1.70000000000000012E-002,0.33999999999999991,274.61366666666669
2013-10-29,04:00,302.166,268.52700000000010,81.626333333333335,-7.3676666666666657,-9999.0,-0.13600000000000001,-1.9553333333333327,-8.99999999999999932E-003,0.33999999999999991,274.61366666666669
2013-10-29,04:30,302.187,268.73633333333339,80.707666666666668,-7.6433333333333326,-9999.0,-0.11400000000000003,-2.2286666666666668,-1.06666666666666646E-002,0.33999999999999991,274.61733333333331
2013-10-29,05:00,302.208,268.70400000000006,82.903999999999996,-7.7666666666666666,-9999.0,-9.06666666666666732E-002,-2.5390000000000010,-1.60000000000000003E-002,0.33999999999999991,274.60933333333321
2013-10-29,05:30,302.229,268.71433333333329,82.883666666666642,-7.3326666666666664,-9999.0,-0.14100000000000001,-2.1753333333333336,-1.70000000000000012E-002,0.33999999999999991,274.60100000000006
2013-10-29,06:00,302.249,268.71033333333321,82.600666666666683,-7.7560000000000011,-9999.0,-0.24399999999999997,-2.2753333333333337,-8.99999999999999932E-003,0.33999999999999991,274.59933333333339
2013-10-29,06:30,302.270,268.66066666666660,81.797666666666657,-7.3826666666666663,-9999.0,-0.15700000000000003,-1.8060000000000000,0.59799999999999998,0.33999999999999991,274.59466666666674
2013-10-29,07:00,302.291,268.69766666666663,80.644999999999982,-7.0786666666666660,-9999.0,0.52666666666666673,4.2043333333333335,13.833333333333334,0.33999999999999991,274.58733333333333
2013-10-29,07:30,302.312,268.98699999999997,80.305666666666681,-6.6103333333333332,-9999.0,5.5349999999999993,43.327333333333335,83.753666666666660,0.33999999999999991,274.58366666666672
2013-10-29,08:00,302.333,269.65400000000005,79.205333333333328,-6.7513333333333341,-9999.0,8.2809999999999988,68.152666666666676,138.26966666666664,0.33999999999999991,274.59433333333334
2013-10-29,08:30,302.354,270.13266666666669,73.741666666666660,-6.4983333333333331,-9999.0,21.201666666666668,159.85899999999992,305.30366666666663,0.33999999999999991,274.62266666666670
2013-10-29,09:00,302.374,271.05366666666669,69.841666666666669,-6.8586666666666662,-9999.0,22.236333333333327,183.79166666666663,358.87266666666682,0.33999999999999991,274.66733333333337
2013-10-29,09:30,302.395,271.73299999999995,64.245333333333335,-6.5883333333333329,-9999.0,17.088666666666668,153.70366666666666,312.72466666666674,0.33999999999999991,274.72833333333335
2013-10-29,10:00,302.416,272.07933333333341,65.511333333333340,-6.2783333333333342,-9999.0,19.401333333333334,177.86966666666663,368.35133333333340,0.33999999999999991,274.77400000000006
2013-10-29,10:30,302.437,272.19899999999996,65.218333333333348,-5.4286666666666683,-9999.0,16.275000000000002,154.96533333333335,323.61899999999997,0.33999999999999991,274.83400000000006
2013-10-29,11:00,302.458,272.17466666666661,65.086666666666673,-5.4443333333333319,-9999.0,13.734666666666667,132.39300000000000,282.04166666666663,0.33999999999999991,274.90666666666664
2013-10-29,11:30,302.479,272.60166666666669,62.942333333333330,-4.4759999999999991,-9999.0,22.781333333333333,214.56166666666670,452.36966666666660,0.33999999999999991,274.99466666666677
2013-10-29,12:00,302.499,273.07366666666661,59.265000000000001,-6.0079999999999982,-9999.0,15.901000000000000,159.54333333333338,348.80933333333326,0.33999999999999991,275.16333333333330
2013-10-29,12:30,302.520,273.22300000000007,57.422333333333327,-6.2816666666666681,-9999.0,9.7823333333333302,102.95599999999999,230.56466666666665,0.33999999999999991,275.35300000000001
2013-10-29,13:00,302.541,273.11199999999997,60.753999999999998,-6.1746666666666679,-9999.0,8.4213333333333331,88.819000000000017,202.17733333333334,0.33999999999999991,275.48333333333341
2013-10-29,13:30,302.562,272.47300000000007,72.238666666666660,-5.7023333333333328,-9999.0,9.3986666666666654,95.132666666666651,215.42999999999998,0.33999999999999991,275.54733333333337
2013-10-29,14:00,302.583,272.23966666666678,78.819666666666677,-5.7486666666666659,-9999.0,9.4279999999999973,95.695666666666654,211.54200000000003,0.33999999999999991,275.57900000000001
2013-10-29,14:30,302.604,272.15833333333336,83.467666666666673,-6.6403333333333325,-9999.0,6.6246666666666671,70.939000000000007,159.19799999999998,0.33999999999999991,275.60666666666663
2013-10-29,15:00,302.624,271.94866666666672,88.442333333333337,-7.1156666666666641,-9.8949999999999996,5.8993333333333329,62.916333333333313,141.38366666666667,0.33999999999999991,275.63400000000007
2013-10-29,15:30,302.645,271.96233333333333,91.344999999999985,-7.5293333333333310,-7.5648275862068957,6.0936666666666657,56.733333333333320,126.93000000000001,0.33999999999999991,275.64933333333323
2013-10-29,16:00,302.666,271.86666666666667,94.241999999999976,-6.7546666666666653,-4.3153333333333332,3.2076666666666669,28.449666666666669,65.714666666666673,0.33999999999999991,275.64900000000000
2013-10-29,16:30,302.687,271.87599999999998,95.680999999999997,-6.1503333333333332,-3.0360000000000005,1.1043333333333334,10.655333333333335,23.267666666666670,0.33999999999999991,275.63033333333334
2013-10-29,17:00,302.708,271.94133333333332,96.408000000000001,-5.8690000000000007,-2.7143333333333333,-0.19866666666666666,2.0630000000000002,5.9009999999999998,0.33999999999999991,275.60900000000004
2013-10-29,17:30,302.729,271.97099999999995,96.868333333333311,-5.4836666666666662,-2.2716666666666669,-0.51033333333333342,-0.59999999999999987,0.17366666666666664,0.33999999999999991,275.59600000000006
2013-10-29,18:00,302.749,272.02033333333344,96.940333333333385,-5.8686666666666669,-1.7346666666666668,-0.51100000000000001,-0.68799999999999994,-1.80000000000000056E-002,0.33999999999999991,275.58666666666670
2013-10-29,18:30,302.770,272.11166666666662,96.914666666666662,-5.9603333333333346,-1.6096666666666668,-0.53833333333333344,-0.72433333333333338,-2.23333333333333370E-002,0.33999999999999991,275.58966666666674
2013-10-29,19:00,302.791,272.24100000000004,97.200666666666692,-6.3746666666666671,-1.5906666666666667,-0.59233333333333349,-0.69233333333333336,-2.60000000000000092E-002,0.33999999999999991,275.60000000000008
2013-10-29,19:30,302.812,272.33700000000010,97.484333333333339,-6.5996666666666659,-1.5446666666666666,-0.69533333333333336,-0.78533333333333322,-2.50000000000000014E-002,0.33999999999999991,275.61533333333330
2013-10-29,20:00,302.833,272.50033333333346,97.904666666666671,-6.0226666666666668,-1.3536666666666666,-0.52699999999999991,-0.55366666666666653,-2.73333333333333414E-002,0.33999999999999991,275.61733333333331
2013-10-29,20:30,302.854,272.65066666666667,98.283999999999978,-5.9343333333333330,-1.4633333333333334,-0.35700000000000004,-0.57900000000000018,-6.20000000000000343E-002,0.33999999999999997,275.62633333333332
2013-10-29,21:00,302.874,272.83033333333339,98.526000000000025,-6.1253333333333320,-1.4140000000000001,-0.20400000000000007,-0.47900000000000004,-1.36666666666666672E-002,0.33999999999999991,275.64500000000004
2013-10-29,21:30,302.895,272.98300000000000,98.589333333333329,-6.1500000000000004,-1.5510000000000004,-0.15266666666666670,-0.61033333333333339,-5.33333333333333576E-002,0.33999999999999991,275.67366666666669
2013-10-29,22:00,302.916,273.07099999999997,98.238333333333330,-6.2973333333333326,-1.5413333333333332,-0.27333333333333332,-0.86499999999999999,-6.96666666666666962E-002,-9999.0,275.71066666666667
2013-10-29,22:30,302.937,273.08566666666667,97.844666666666683,-7.0706666666666678,-1.4269999999999998,-0.47899999999999998,-0.81766666666666654,-6.10000000000000195E-002,0.34000000000000002,275.70866666666666
2013-10-29,23:00,302.958,273.09666666666664,97.707000000000008,-6.7383333333333315,-1.3863333333333332,-0.45699999999999996,-0.75366666666666648,-5.80000000000000376E-002,0.33999999999999991,275.72633333333329
2013-10-29,23:30,302.979,273.10433333333339,97.814999999999969,-6.2193333333333323,-1.3706666666666669,-0.35833333333333334,-0.64133333333333331,-6.26666666666667038E-002,0.34000000000000002,275.75933333333342
2013-10-30,00:00,303.000,273.10800000000000,98.154666666666699,-6.5793333333333335,-1.5159999999999996,-0.31133333333333335,-1.0426666666666666,-6.76666666666666944E-002,0.34000000000000002,275.77333333333343
